Home > Weather > Finse > Past weeks

Flag for Norway Past Weather in Finse, Norway — Yesterday and Last 2 Weeks

Now
57 °F

Cool.


Feels Like: 57 °F
Forecast: 50 / 58 °F
Wind: 1 mph from Southwest

Location: Finsevatn

Current Time: Jul 24, 2016 at 10:53:54 AM

Latest Report: Jul 24, 2016 at 10:00 AM


Visibility: N/A

Pressure: 30.07 "Hg (26.00 "Hg at 1221m altitude)

Humidity: 72%

Dew Point: 48 °F

Location of FinseLocation

Past Weather in Finse — Graph

°F

Finse Temperature Yesterday

Maximum temperature yesterday: 61 °F (at 1:00 PM)
Minimum temperature yesterday: 50 °F (at 5:00 AM)
Average temperature yesterday: 55 °F

High & Low Weather Summary for the Past Weeks

 TemperatureHumidityPressure
High65 °F (Jul 20, 5:00 PM)97% (Jul 13, 2:00 AM)30.20 "Hg (Jul 13, 2:00 AM)
Low34 °F (Jul 10, 4:00 AM)54% (Jul 20, 4:00 PM)29.38 "Hg (Jul 11, 1:00 PM)
Average48 °F85%29.85 "Hg
* Reported Jul 9 9:00 AM — Jul 24 9:00 AM, Finse, Weather by CustomWeather, © 2016

Note: Actual official high and low records may vary slightly from our data, if they occured in-between our weather recording intervals... More about our weather records

Advertising

Finse Weather History for the Previous 24 Hours

Scroll right to see more
 ConditionsComfort  
Time TempWeatherWind HumidityBarometerVisibility
9:00 AM
Sun, Jul 24
54 °FCool.1 mph79%30.10 "HgN/A
8:00 AM51 °FCool.1 mph79%30.11 "HgN/A
7:00 AM49 °FCool.1 mph87%30.14 "HgN/A
6:00 AM43 °FQuite cool.No wind95%30.20 "HgN/A
5:00 AM43 °FQuite cool.No wind94%30.20 "HgN/A
4:00 AM45 °FQuite cool.1 mph95%30.19 "HgN/A
3:00 AM45 °FCool.1 mph94%30.18 "HgN/A
2:00 AM48 °FCool.1 mph91%30.16 "HgN/A
1:00 AM48 °FCool.1 mph93%30.16 "HgN/A
12:00 AM50 °FCool.1 mph90%30.14 "HgN/A
11:00 PM
Sat, Jul 23
53 °FCool.2 mph87%30.11 "HgN/A
10:00 PM55 °FCool.5 mph80%30.09 "HgN/A
9:00 PM57 °FCool.5 mph73%30.06 "HgN/A
8:00 PM57 °FCool.6 mph74%30.06 "HgN/A
5:00 PM60 °FCool.5 mph64%30.04 "HgN/A
4:00 PM60 °FCool.6 mph69%30.04 "HgN/A
3:00 PM60 °FCool.6 mph67%30.03 "HgN/A
2:00 PM60 °FCool.6 mph67%30.03 "HgN/A
1:00 PM61 °FCool.5 mph63%30.02 "HgN/A
12:00 PM58 °FCool.3 mph68%30.05 "HgN/A
11:00 AM58 °FCool.3 mph70%30.05 "HgN/A
10:00 AM56 °FCool.1 mph79%30.07 "HgN/A
Weather by CustomWeather, © 2016

See weather overviewHow to use our weather pages